Time,TemperatureF,DewpointF,PressureIn,WindDirection,WindDirectionDegrees,WindSpeedMPH,WindSpeedGustMPH,Humidity,HourlyPrecipIn,Conditions,Clouds,dailyrainin,SoftwareType,DateUTC
2013-01-08 00:04:00,46.0,40.0,30.37,NNE,14,3.0,-999.0,78,-99.99,,,-99.99,,2013-01-08 05:04:00,
2013-01-08 00:12:00,46.0,40.0,30.37,NNE,14,3.0,-999.0,78,-99.99,,,-99.99,,2013-01-08 05:12:00,
2013-01-08 00:22:00,46.0,40.0,30.37,NNE,29,4.0,-999.0,79,-99.99,,,-99.99,,2013-01-08 05:22:00,
2013-01-08 00:33:00,46.0,40.0,30.37,NNE,29,4.0,-999.0,79,-99.99,,,-99.99,,2013-01-08 05:33:00,
2013-01-08 00:43:00,46.0,40.0,30.37,NNE,29,4.0,-999.0,79,-99.99,,,-99.99,,2013-01-08 05:43:00,
2013-01-08 00:53:00,45.0,40.0,30.36,NNE,30,4.0,-999.0,81,-99.99,,,-99.99,,2013-01-08 05:53:00,
2013-01-08 01:03:00,45.0,40.0,30.35,NNE,13,5.0,-999.0,82,-99.99,,,-99.99,,2013-01-08 06:03:00,
2013-01-08 01:12:00,45.0,40.0,30.35,NNE,13,5.0,-999.0,82,-99.99,,,-99.99,,2013-01-08 06:12:00,
2013-01-08 01:22:00,46.0,41.0,30.35,North,360,5.0,-999.0,81,-99.99,,,-99.99,,2013-01-08 06:22:00,
2013-01-08 01:33:00,46.0,41.0,30.35,ENE,74,5.0,-999.0,82,-99.99,,,-99.99,,2013-01-08 06:33:00,
2013-01-08 01:42:00,46.0,41.0,30.35,ENE,74,5.0,-999.0,82,-99.99,,,-99.99,,2013-01-08 06:42:00,
2013-01-08 01:52:00,46.0,41.0,30.35,NNE,15,4.0,-999.0,82,-99.99,,,-99.99,,2013-01-08 06:52:00,
2013-01-08 02:02:00,45.0,40.0,30.35,NNW,328,4.0,-999.0,83,-99.99,,,-99.99,,2013-01-08 07:02:00,
2013-01-08 02:12:00,45.0,40.0,30.35,NNW,328,4.0,-999.0,83,-99.99,,,-99.99,,2013-01-08 07:12:00,
2013-01-08 02:22:00,45.0,40.0,30.34,NNE,32,5.0,-999.0,84,-99.99,,,-99.99,,2013-01-08 07:22:00,
2013-01-08 02:32:00,45.0,40.0,30.34,NNE,27,5.0,-999.0,84,-99.99,,,-99.99,,2013-01-08 07:32:00,
2013-01-08 02:42:00,45.0,40.0,30.34,NNE,27,5.0,-999.0,84,-99.99,,,-99.99,,2013-01-08 07:42:00,
2013-01-08 02:52:00,44.0,40.0,30.34,NE,36,5.0,-999.0,85,-99.99,,,-99.99,,2013-01-08 07:52:00,
2013-01-08 03:02:00,44.0,40.0,30.33,North,355,4.0,-999.0,86,-99.99,,,-99.99,,2013-01-08 08:02:00,
2013-01-08 03:12:00,44.0,40.0,30.33,North,355,4.0,-999.0,86,-99.99,,,-99.99,,2013-01-08 08:12:00,
2013-01-08 03:22:00,44.0,40.0,30.33,NNW,336,4.0,-999.0,86,-99.99,,,-99.99,,2013-01-08 08:22:00,
2013-01-08 03:32:00,44.0,40.0,30.33,NNE,25,4.0,-999.0,87,-99.99,,,-99.99,,2013-01-08 08:32:00,
2013-01-08 03:42:00,44.0,40.0,30.33,NNE,25,4.0,-999.0,87,-99.99,,,-99.99,,2013-01-08 08:42:00,
2013-01-08 03:52:00,44.0,40.0,30.33,NNW,343,3.0,-999.0,87,-99.99,,,-99.99,,2013-01-08 08:52:00,
2013-01-08 04:02:00,44.0,40.0,30.33,NNE,14,4.0,-999.0,87,-99.99,,,-99.99,,2013-01-08 09:02:00,
2013-01-08 04:12:00,44.0,40.0,30.33,NNE,14,4.0,-999.0,87,-99.99,,,-99.99,,2013-01-08 09:12:00,
2013-01-08 04:22:00,44.0,40.0,30.32,NNE,29,4.0,-999.0,87,-99.99,,,-99.99,,2013-01-08 09:22:00,
2013-01-08 04:33:00,44.0,40.0,30.32,North,355,5.0,-999.0,87,-99.99,,,-99.99,,2013-01-08 09:33:00,
2013-01-08 04:42:00,44.0,40.0,30.32,North,355,5.0,-999.0,87,-99.99,,,-99.99,,2013-01-08 09:42:00,
2013-01-08 04:52:00,44.0,40.0,30.32,NNW,347,4.0,-999.0,87,-99.99,,,-99.99,,2013-01-08 09:52:00,
2013-01-08 05:02:00,44.0,40.0,30.33,NNE,26,4.0,-999.0,87,-99.99,,,-99.99,,2013-01-08 10:02:00,
2013-01-08 05:12:00,44.0,40.0,30.33,NNE,26,4.0,-999.0,87,-99.99,,,-99.99,,2013-01-08 10:12:00,
2013-01-08 05:22:00,44.0,41.0,30.33,NNW,348,4.0,-999.0,88,-99.99,,,-99.99,,2013-01-08 10:22:00,
2013-01-08 05:33:00,44.0,40.0,30.33,NNE,29,4.0,-999.0,87,-99.99,,,-99.99,,2013-01-08 10:33:00,
2013-01-08 05:42:00,44.0,40.0,30.33,NNE,29,4.0,-999.0,87,-99.99,,,-99.99,,2013-01-08 10:42:00,
2013-01-08 05:52:00,44.0,40.0,30.33,North,5,4.0,-999.0,87,-99.99,,,-99.99,,2013-01-08 10:52:00,
2013-01-08 06:02:00,44.0,40.0,30.34,NNE,25,5.0,-999.0,87,-99.99,,,-99.99,,2013-01-08 11:02:00,
2013-01-08 06:12:00,44.0,40.0,30.34,NNE,25,5.0,-999.0,87,-99.99,,,-99.99,,2013-01-08 11:12:00,
2013-01-08 06:22:00,44.0,40.0,30.34,NNE,14,5.0,-999.0,86,-99.99,,,-99.99,,2013-01-08 11:22:00,
2013-01-08 06:33:00,44.0,40.0,30.35,North,355,4.0,-999.0,85,-99.99,,,-99.99,,2013-01-08 11:33:00,
2013-01-08 06:42:00,44.0,40.0,30.35,North,355,4.0,-999.0,85,-99.99,,,-99.99,,2013-01-08 11:42:00,
2013-01-08 06:53:00,45.0,41.0,30.35,NNW,336,4.0,-999.0,85,-99.99,,,-99.99,,2013-01-08 11:53:00,
2013-01-08 07:03:00,45.0,40.0,30.35,NNE,13,5.0,-999.0,84,-99.99,,,-99.99,,2013-01-08 12:03:00,
2013-01-08 07:12:00,45.0,40.0,30.35,NNE,13,5.0,-999.0,84,-99.99,,,-99.99,,2013-01-08 12:12:00,
2013-01-08 07:22:00,45.0,40.0,30.36,North,360,5.0,-999.0,83,-99.99,,,-99.99,,2013-01-08 12:22:00,
2013-01-08 07:33:00,44.0,39.0,30.36,NNE,16,4.0,-999.0,83,-99.99,,,-99.99,,2013-01-08 12:33:00,
2013-01-08 07:43:00,44.0,39.0,30.36,NNE,16,4.0,-999.0,83,-99.99,,,-99.99,,2013-01-08 12:43:00,
2013-01-08 07:53:00,44.0,39.0,30.36,NE,43,4.0,-999.0,83,-99.99,,,-99.99,,2013-01-08 12:53:00,
2013-01-08 08:03:00,44.0,39.0,30.38,North,5,4.0,-999.0,84,-99.99,,,-99.99,,2013-01-08 13:03:00,
2013-01-08 08:13:00,44.0,39.0,30.38,North,5,4.0,-999.0,84,-99.99,,,-99.99,,2013-01-08 13:13:00,
2013-01-08 08:22:00,44.0,39.0,30.38,North,355,4.0,-999.0,83,-99.99,,,-99.99,,2013-01-08 13:22:00,
2013-01-08 08:33:00,45.0,40.0,30.39,North,355,4.0,-999.0,83,-99.99,,,-99.99,,2013-01-08 13:33:00,
2013-01-08 08:43:00,45.0,40.0,30.39,North,355,4.0,-999.0,83,-99.99,,,-99.99,,2013-01-08 13:43:00,
2013-01-08 08:52:00,45.0,40.0,30.40,NNE,16,5.0,-999.0,82,-99.99,,,-99.99,,2013-01-08 13:52:00,
2013-01-08 09:03:00,46.0,41.0,30.40,NE,39,4.0,-999.0,81,-99.99,,,-99.99,,2013-01-08 14:03:00,
2013-01-08 09:13:00,46.0,41.0,30.40,NE,39,4.0,-999.0,81,-99.99,,,-99.99,,2013-01-08 14:13:00,
2013-01-08 09:23:00,47.0,41.0,30.39,NNE,16,4.0,-999.0,81,-99.99,,,-99.99,,2013-01-08 14:23:00,
2013-01-08 09:33:00,48.0,42.0,30.39,ENE,63,4.0,-999.0,81,-99.99,,,-99.99,,2013-01-08 14:33:00,
2013-01-08 09:43:00,48.0,42.0,30.39,ENE,63,4.0,-999.0,81,-99.99,,,-99.99,,2013-01-08 14:43:00,
2013-01-08 09:53:00,50.0,44.0,30.40,NNE,20,5.0,-999.0,80,-99.99,,,-99.99,,2013-01-08 14:53:00,
2013-01-08 10:03:00,51.0,45.0,30.40,NE,49,4.0,-999.0,80,-99.99,,,-99.99,,2013-01-08 15:03:00,
2013-01-08 10:12:00,51.0,45.0,30.40,NE,49,4.0,-999.0,80,-99.99,,,-99.99,,2013-01-08 15:12:00,
2013-01-08 10:23:00,52.0,46.0,30.41,North,9,5.0,-999.0,80,-99.99,,,-99.99,,2013-01-08 15:23:00,
2013-01-08 10:33:00,53.0,47.0,30.40,NNW,329,4.0,-999.0,79,-99.99,,,-99.99,,2013-01-08 15:33:00,
2013-01-08 10:43:00,53.0,47.0,30.40,NNW,329,4.0,-999.0,79,-99.99,,,-99.99,,2013-01-08 15:43:00,
2013-01-08 10:53:00,54.0,47.0,30.40,NE,43,4.0,-999.0,78,-99.99,,,-99.99,,2013-01-08 15:53:00,
2013-01-08 11:03:00,57.0,50.0,30.40,NNE,22,3.0,-999.0,77,-99.99,,,-99.99,,2013-01-08 16:03:00,
2013-01-08 11:13:00,57.0,50.0,30.40,NNE,22,3.0,-999.0,77,-99.99,,,-99.99,,2013-01-08 16:13:00,
2013-01-08 11:23:00,58.0,51.0,30.40,ESE,119,4.0,-999.0,78,-99.99,,,-99.99,,2013-01-08 16:23:00,
2013-01-08 11:34:00,59.0,52.0,30.39,East,92,5.0,-999.0,78,-99.99,,,-99.99,,2013-01-08 16:34:00,
2013-01-08 11:43:00,59.0,52.0,30.39,East,92,5.0,-999.0,78,-99.99,,,-99.99,,2013-01-08 16:43:00,
2013-01-08 11:52:00,59.0,52.0,30.38,East,100,5.0,-999.0,78,-99.99,,,-99.99,,2013-01-08 16:52:00,
2013-01-08 12:03:00,59.0,52.0,30.38,East,100,5.0,-999.0,78,-99.99,,,-99.99,,2013-01-08 17:03:00,
2013-01-08 12:13:00,59.0,52.0,30.38,East,100,5.0,-999.0,78,-99.99,,,-99.99,,2013-01-08 17:13:00,
2013-01-08 12:23:00,60.0,53.0,30.37,NE,47,4.0,-999.0,77,-99.99,,,-99.99,,2013-01-08 17:23:00,
2013-01-08 12:34:00,60.0,53.0,30.36,ENE,78,6.0,-999.0,78,-99.99,,,-99.99,,2013-01-08 17:34:00,
2013-01-08 12:43:00,60.0,53.0,30.36,ENE,78,6.0,-999.0,78,-99.99,,,-99.99,,2013-01-08 17:43:00,
2013-01-08 12:53:00,61.0,54.0,30.36,SE,124,6.0,-999.0,78,-99.99,,,-99.99,,2013-01-08 17:53:00,
2013-01-08 13:04:00,62.0,55.0,30.36,ENE,77,3.0,-999.0,77,-99.99,,,-99.99,,2013-01-08 18:04:00,
2013-01-08 13:13:00,62.0,55.0,30.36,ENE,77,3.0,-999.0,77,-99.99,,,-99.99,,2013-01-08 18:13:00,
2013-01-08 13:23:00,62.0,55.0,30.35,East,85,4.0,-999.0,77,-99.99,,,-99.99,,2013-01-08 18:23:00,
2013-01-08 13:33:00,63.0,55.0,30.35,ENE,69,4.0,-999.0,76,-99.99,,,-99.99,,2013-01-08 18:33:00,
2013-01-08 13:43:00,63.0,55.0,30.35,ENE,69,4.0,-999.0,76,-99.99,,,-99.99,,2013-01-08 18:43:00,
2013-01-08 13:53:00,64.0,56.0,30.34,ENE,69,4.0,-999.0,76,-99.99,,,-99.99,,2013-01-08 18:53:00,
2013-01-08 14:03:00,64.0,56.0,30.34,East,82,4.0,-999.0,76,-99.99,,,-99.99,,2013-01-08 19:03:00,
2013-01-08 14:12:00,64.0,56.0,30.34,East,82,4.0,-999.0,76,-99.99,,,-99.99,,2013-01-08 19:12:00,
2013-01-08 14:23:00,65.0,57.0,30.34,East,93,3.0,-999.0,75,-99.99,,,-99.99,,2013-01-08 19:23:00,
2013-01-08 14:33:00,65.0,56.0,30.34,East,92,5.0,-999.0,74,-99.99,,,-99.99,,2013-01-08 19:33:00,
2013-01-08 14:43:00,65.0,56.0,30.34,East,92,5.0,-999.0,74,-99.99,,,-99.99,,2013-01-08 19:43:00,
2013-01-08 14:53:00,65.0,57.0,30.34,ESE,116,4.0,-999.0,75,-99.99,,,-99.99,,2013-01-08 19:53:00,
2013-01-08 15:03:00,65.0,56.0,30.34,NNE,31,5.0,-999.0,74,-99.99,,,-99.99,,2013-01-08 20:03:00,
2013-01-08 15:12:00,65.0,56.0,30.34,NNE,31,5.0,-999.0,74,-99.99,,,-99.99,,2013-01-08 20:12:00,
2013-01-08 15:23:00,65.0,56.0,30.34,NNE,28,6.0,-999.0,74,-99.99,,,-99.99,,2013-01-08 20:23:00,
2013-01-08 15:33:00,65.0,57.0,30.34,ESE,103,6.0,-999.0,75,-99.99,,,-99.99,,2013-01-08 20:33:00,
2013-01-08 15:43:00,65.0,57.0,30.34,ESE,103,6.0,-999.0,75,-99.99,,,-99.99,,2013-01-08 20:43:00,
2013-01-08 15:53:00,65.0,56.0,30.34,ENE,76,4.0,-999.0,74,-99.99,,,-99.99,,2013-01-08 20:53:00,
2013-01-08 16:03:00,64.0,56.0,30.33,East,89,5.0,-999.0,75,-99.99,,,-99.99,,2013-01-08 21:03:00,
2013-01-08 16:13:00,64.0,56.0,30.33,East,89,5.0,-999.0,75,-99.99,,,-99.99,,2013-01-08 21:13:00,
2013-01-08 16:23:00,64.0,56.0,30.33,ESE,122,5.0,-999.0,75,-99.99,,,-99.99,,2013-01-08 21:23:00,
2013-01-08 16:33:00,63.0,55.0,30.33,East,86,4.0,-999.0,76,-99.99,,,-99.99,,2013-01-08 21:33:00,
2013-01-08 16:43:00,63.0,55.0,30.33,East,86,4.0,-999.0,76,-99.99,,,-99.99,,2013-01-08 21:43:00,
2013-01-08 16:53:00,63.0,56.0,30.33,ENE,61,4.0,-999.0,77,-99.99,,,-99.99,,2013-01-08 21:53:00,
2013-01-08 17:03:00,62.0,55.0,30.33,East,91,2.0,-999.0,78,-99.99,,,-99.99,,2013-01-08 22:03:00,
2013-01-08 17:12:00,62.0,55.0,30.33,East,91,2.0,-999.0,78,-99.99,,,-99.99,,2013-01-08 22:12:00,
2013-01-08 17:23:00,61.0,54.0,30.34,NE,53,3.0,-999.0,79,-99.99,,,-99.99,,2013-01-08 22:23:00,
2013-01-08 17:33:00,61.0,55.0,30.33,NE,51,3.0,-999.0,80,-99.99,,,-99.99,,2013-01-08 22:33:00,
2013-01-08 17:43:00,61.0,55.0,30.33,NE,51,3.0,-999.0,80,-99.99,,,-99.99,,2013-01-08 22:43:00,
2013-01-08 17:52:00,60.0,54.0,30.34,East,86,4.0,-999.0,80,-99.99,,,-99.99,,2013-01-08 22:52:00,
2013-01-08 18:03:00,60.0,54.0,30.34,East,86,4.0,-999.0,80,-99.99,,,-99.99,,2013-01-08 23:03:00,
2013-01-08 18:13:00,60.0,54.0,30.34,East,86,4.0,-999.0,80,-99.99,,,-99.99,,2013-01-08 23:13:00,
2013-01-08 18:22:00,59.0,54.0,30.34,ESE,104,4.0,-999.0,82,-99.99,,,-99.99,,2013-01-08 23:22:00,
2013-01-08 18:33:00,58.0,53.0,30.34,ENE,72,4.0,-999.0,82,-99.99,,,-99.99,,2013-01-08 23:33:00,
2013-01-08 18:43:00,58.0,53.0,30.34,ENE,72,4.0,-999.0,82,-99.99,,,-99.99,,2013-01-08 23:43:00,
2013-01-08 18:52:00,59.0,54.0,30.34,ENE,57,4.0,-999.0,82,-99.99,,,-99.99,,2013-01-08 23:52:00,
2013-01-08 19:03:00,58.0,53.0,30.35,NE,41,3.0,-999.0,82,-99.99,,,-99.99,,2013-01-09 00:03:00,
2013-01-08 19:13:00,58.0,53.0,30.35,NE,41,3.0,-999.0,82,-99.99,,,-99.99,,2013-01-09 00:13:00,
2013-01-08 19:22:00,59.0,54.0,30.35,East,79,3.0,-999.0,82,-99.99,,,-99.99,,2013-01-09 00:22:00,
2013-01-08 19:33:00,58.0,53.0,30.35,East,88,3.0,-999.0,82,-99.99,,,-99.99,,2013-01-09 00:33:00,
2013-01-08 19:43:00,58.0,53.0,30.35,East,88,3.0,-999.0,82,-99.99,,,-99.99,,2013-01-09 00:43:00,
2013-01-08 19:52:00,58.0,53.0,30.36,East,91,3.0,-999.0,82,-99.99,,,-99.99,,2013-01-09 00:52:00,
2013-01-08 20:02:00,58.0,53.0,30.36,NE,38,3.0,-999.0,83,-99.99,,,-99.99,,2013-01-09 01:02:00,
2013-01-08 20:12:00,58.0,53.0,30.36,NE,38,3.0,-999.0,83,-99.99,,,-99.99,,2013-01-09 01:12:00,
2013-01-08 20:22:00,58.0,53.0,30.36,ENE,77,4.0,-999.0,83,-99.99,,,-99.99,,2013-01-09 01:22:00,
2013-01-08 20:33:00,58.0,53.0,30.36,ENE,59,2.0,-999.0,83,-99.99,,,-99.99,,2013-01-09 01:33:00,
2013-01-08 20:42:00,58.0,53.0,30.36,ENE,59,2.0,-999.0,83,-99.99,,,-99.99,,2013-01-09 01:42:00,
2013-01-08 20:52:00,58.0,53.0,30.36,NE,39,3.0,-999.0,83,-99.99,,,-99.99,,2013-01-09 01:52:00,
2013-01-08 21:02:00,58.0,53.0,30.36,ENE,61,3.0,-999.0,83,-99.99,,,-99.99,,2013-01-09 02:02:00,
2013-01-08 21:12:00,58.0,53.0,30.36,ENE,61,3.0,-999.0,83,-99.99,,,-99.99,,2013-01-09 02:12:00,
2013-01-08 21:22:00,58.0,53.0,30.36,NE,55,1.0,-999.0,83,-99.99,,,-99.99,,2013-01-09 02:22:00,
2013-01-08 21:33:00,57.0,52.0,30.36,NE,51,1.0,-999.0,83,-99.99,,,-99.99,,2013-01-09 02:33:00,
2013-01-08 21:43:00,57.0,52.0,30.36,NE,51,1.0,-999.0,83,-99.99,,,-99.99,,2013-01-09 02:43:00,
2013-01-08 21:52:00,57.0,52.0,30.36,NE,55,1.0,-999.0,84,-99.99,,,-99.99,,2013-01-09 02:52:00,
2013-01-08 22:03:00,56.0,51.0,30.36,NE,44,1.0,-999.0,84,-99.99,,,-99.99,,2013-01-09 03:03:00,
2013-01-08 22:12:00,56.0,51.0,30.36,NE,44,1.0,-999.0,84,-99.99,,,-99.99,,2013-01-09 03:12:00,
2013-01-08 22:22:00,56.0,51.0,30.36,NE,38,1.0,-999.0,84,-99.99,,,-99.99,,2013-01-09 03:22:00,
2013-01-08 22:33:00,56.0,51.0,30.36,NE,38,1.0,-999.0,84,-99.99,,,-99.99,,2013-01-09 03:33:00,
2013-01-08 22:43:00,56.0,51.0,30.36,NE,38,1.0,-999.0,84,-99.99,,,-99.99,,2013-01-09 03:43:00,
2013-01-08 22:52:00,55.0,51.0,30.36,North,5,2.0,-999.0,86,-99.99,,,-99.99,,2013-01-09 03:52:00,
2013-01-08 23:02:00,55.0,51.0,30.36,ENE,57,1.0,-999.0,86,-99.99,,,-99.99,,2013-01-09 04:02:00,
2013-01-08 23:12:00,55.0,51.0,30.36,ENE,57,1.0,-999.0,86,-99.99,,,-99.99,,2013-01-09 04:12:00,
2013-01-08 23:22:00,55.0,51.0,30.36,NE,36,1.0,-999.0,85,-99.99,,,-99.99,,2013-01-09 04:22:00,
2013-01-08 23:33:00,56.0,52.0,30.37,NE,44,2.0,-999.0,85,-99.99,,,-99.99,,2013-01-09 04:33:00,
2013-01-08 23:42:00,56.0,52.0,30.37,NE,44,2.0,-999.0,85,-99.99,,,-99.99,,2013-01-09 04:42:00,
2013-01-08 23:52:00,56.0,52.0,30.37,NE,44,2.0,-999.0,85,-99.99,,,-99.99,,2013-01-09 04:52:00,